This demonstration page uses our WeatherBlox Daily Observations layout. Learn more.

Hourly Observations for November 23, 2015

Temp ( °F °C ) Dew Point ( °F °C ) Humidity (%) Winds ( mph kmh ) Pressure ( in mb ) Visibility ( mi km ) Precip ( " mm )
12:15 am 00:15 Clear 31 -0.7 22 -5.3 71 71 WNW 3 6 30.18 1022 10 16.0934 0 0
12:35 am 00:35 Clear 32 0 24 -4.7 71 71 Calm 30.18 1022 10 16.0934 0 0
12:55 am 00:55 Clear 33 0.4 24 -4.4 71 71 WSW 3 6 30.18 1022 10 16.0934 0 0
1:15 am 01:15 Clear 32 0.2 24 -4.4 72 72 Calm 30.18 1022 10 16.0934 0 0
1:35 am 01:35 Clear 33 0.6 24 -4.5 69 69 Calm 30.15 1021 10 16.0934 0 0
1:55 am 01:55 Clear 33 0.6 24 -4.4 70 70 Calm 30.15 1021 10 16.0934 0 0
2:15 am 02:15 Clear 32 0 24 -4.6 71 71 Calm 30.18 1022 10 16.0934 0 0
2:35 am 02:35 Clear 32 -0.2 24 -4.5 73 73 WSW 3 6 30.18 1022 10 16.0934 0 0
2:55 am 02:55 Clear 34 1.3 24 -4.4 66 66 WSW 3 6 30.15 1021 10 16.0934 0 0
3:15 am 03:15 Clear 35 1.5 24 -4.5 65 65 WSW 3 6 30.15 1021 10 16.0934 0 0
3:35 am 03:35 Clear 35 1.5 24 -4.6 64 64 WSW 3 6 30.15 1021 10 16.0934 0 0
3:55 am 03:55 Clear 35 1.5 24 -4.5 65 65 Calm 30.15 1021 10 16.0934 0 0
4:15 am 04:15 Clear 32 0.2 23 -5 68 68 WSW 5 7 30.18 1022 10 16.0934 0 0
4:35 am 04:35 Clear 35 1.7 24 -4.6 63 63 WSW 3 6 30.15 1021 10 16.0934 0 0
4:55 am 04:55 Clear 37 2.5 24 -4.6 60 60 W 3 6 30.15 1021 10 16.0934 0 0
5:15 am 05:15 Clear 35 1.5 24 -4.5 65 65 W 6 9 30.15 1021 10 16.0934 0 0
5:35 am 05:35 Clear 34 1 24 -4.5 67 67 W 6 9 30.15 1021 10 16.0934 0 0
5:55 am 05:55 Clear 32 0.1 24 -4.7 70 70 Calm 30.21 1023 10 16.0934 0 0
6:15 am 06:15 Clear 30 -1.1 23 -5 75 75 W 3 6 30.21 1023 10 16.0934 0 0
6:35 am 06:35 Clear 32 0.2 24 -4.7 70 70 W 3 6 30.21 1023 10 16.0934 0 0
6:55 am 06:55 Clear 30 -1 22 -5.4 72 72 Calm 30.21 1023 10 16.0934 0 0
7:15 am 07:15 Clear 29 -1.9 22 -5.5 77 77 Calm 30.21 1023 10 16.0934 0 0
7:35 am 07:35 Sunny 29 -1.6 23 -4.8 79 79 WNW 5 7 30.21 1023 10 16.0934 0 0
7:55 am 07:55 Sunny 29 -1.4 22 -5.3 75 75 WSW 5 7 30.21 1023 10 16.0934 0 0
8:15 am 08:15 Sunny 29 -1.6 24 -4.6 80 80 W 5 7 30.21 1023 10 16.0934 0 0
8:35 am 08:35 Sunny 34 1 27 -3 75 75 Calm 30.18 1022 10 16.0934 0 0
8:55 am 08:55 Sunny 38 3.1 28 -2 70 70 Calm 30.18 1022 10 16.0934 0 0
9:15 am 09:15 Sunny 40 4.5 27 -2.6 60 60 Calm 30.15 1021 10 16.0934 0 0
9:35 am 09:35 Sunny 42 5.5 28 -2.4 57 57 Calm 30.15 1021 10 16.0934 0 0
9:55 am 09:55 Sunny 44 6.9 30 -1.2 57 57 Calm 30.12 1020 10 16.0934 0 0
10:15 am 10:15 Sunny 47 8.2 29 -1.6 50 50 Calm 30.12 1020 10 16.0934 0 0
10:35 am 10:35 Sunny 49 9.4 30 -1.1 48 48 Calm 30.12 1020 10 16.0934 0 0
10:55 am 10:55 Sunny 51 10.6 30 -0.9 45 45 Calm 30.09 1019 10 16.0934 0 0
11:15 am 11:15 Sunny 53 11.8 29 -1.6 40 40 Calm 30.09 1019 10 16.0934 0 0
11:35 am 11:35 Sunny 55 13 28 -2 36 36 Calm 30.09 1019 10 16.0934 0 0
11:55 am 11:55 Sunny 57 14 28 -2.2 33 33 ESE 3 6 30.03 1017 10 16.0934 0 0
12:15 pm 12:15 Sunny 59 15 27 -2.9 29 29 Calm 30.03 1017 10 16.0934 0 0
12:35 pm 12:35 Sunny 61 16 22 -5.7 22 22 S 5 7 30.03 1017 10 16.0934 0 0
12:55 pm 12:55 Sunny 62 16.4 22 -5.7 22 22 SSE 6 9 30 1016 10 16.0934 0 0
1:15 pm 13:15 Sunny 62 16.5 21 -6.3 20 20 S 6 9 29.97 1015 10 16.0934 0 0
1:35 pm 13:35 Sunny 62 16.6 21 -5.9 21 21 SSE 8 13 29.97 1015 10 16.0934 0 0
1:55 pm 13:55 Sunny 62 16.9 22 -5.4 21 21 SSE 10 17 29.97 1015 10 16.0934 0 0
2:15 pm 14:15 Sunny 63 17 23 -5.1 22 22 SE 10 17 29.94 1014 10 16.0934 0 0
2:35 pm 14:35 Sunny 63 17.3 24 -4.6 22 22 SSE 12 19 29.94 1014 10 16.0934 0 0
2:55 pm 14:55 Sunny 64 17.6 24 -4.2 22 22 SSE 13 20 29.94 1014 10 16.0934 0 0
3:15 pm 15:15 Sunny 63 17.3 21 -6 20 20 SSE 10 17 29.94 1014 10 16.0934 0 0
3:35 pm 15:35 Sunny 63 17 21 -6.1 20 20 S 15 24 29.94 1014 10 16.0934 0 0
3:55 pm 15:55 Sunny 62 16.5 22 -5.3 22 22 S 9 15 29.94 1014 10 16.0934 0 0
4:15 pm 16:15 Sunny 60 15.4 26 -3.5 27 27 SSE 10 17 29.97 1015 10 16.0934 0 0
4:35 pm 16:35 Sunny 56 13.2 27 -2.9 33 33 SSE 8 13 29.97 1015 10 16.0934 0 0
4:55 pm 16:55 Sunny 55 12.9 27 -2.9 33 33 SE 10 17 29.94 1014 10 16.0934 0 0
5:15 pm 17:15 Clear 52 11 28 -2.5 39 39 SE 9 15 29.97 1015 10 16.0934 0 0
5:35 pm 17:35 Clear 46 7.8 28 -2 50 50 SE 10 17 30 1016 10 16.0934 0 0
5:55 pm 17:55 Clear 45 7.1 28 -2.1 52 52 SE 8 13 30 1016 10 16.0934 0 0
6:15 pm 18:15 Clear 44 6.8 29 -1.8 55 55 ESE 9 15 30 1016 10 16.0934 0 0
6:35 pm 18:35 Clear 45 7 30 -1.2 56 56 ESE 12 19 30 1016 10 16.0934 0 0
6:55 pm 18:55 Clear 45 7.1 30 -1 57 57 ESE 12 19 30 1016 10 16.0934 0 0
7:15 pm 19:15 Clear 43 5.9 30 -1.3 60 60 ESE 10 17 30 1016 10 16.0934 0 0
7:35 pm 19:35 Clear 41 4.8 29 -1.5 64 64 SE 10 17 30.03 1017 10 16.0934 0 0
7:55 pm 19:55 Clear 40 4.4 29 -1.7 65 65 SE 10 17 30.03 1017 10 16.0934 0 0
8:15 pm 20:15 Clear 38 3.2 28 -2 69 69 SE 9 15 30.03 1017 10 16.0934 0 0
8:35 pm 20:35 Clear 37 3 28 -2 70 70 SE 7 11 30.03 1017 10 16.0934 0 0
8:55 pm 20:55 Clear 35 1.5 28 -2.3 76 76 SE 8 13 30.06 1018 10 16.0934 0 0
9:15 pm 21:15 Clear 35 1.7 28 -2.2 76 76 SE 9 15 30.06 1018 10 16.0934 0 0
9:35 pm 21:35 Clear 36 2 28 -2.5 72 72 SE 8 13 30.06 1018 10 16.0934 0 0
9:55 pm 21:55 Clear 35 1.7 27 -2.6 73 73 SE 6 9 30.06 1018 10 16.0934 0 0
10:15 pm 22:15 Clear 35 1.9 27 -2.6 72 72 SE 5 7 30.06 1018 10 16.0934 0 0
10:35 pm 22:35 Clear 36 2 27 -2.7 71 71 SE 7 11 30.06 1018 10 16.0934 0 0
10:55 pm 22:55 Clear 36 2 28 -2.4 73 73 SE 7 11 30.06 1018 10 16.0934 0 0
11:15 pm 23:15 Clear 35 1.6 28 -2.5 74 74 SE 8 13 30.06 1018 10 16.0934 0 0
11:35 pm 23:35 Clear 35 1.7 28 -2.2 76 76 SE 9 15 30.03 1017 10 16.0934 0 0
11:55 pm 23:55 Clear 36 2.1 28 -2 75 75 SSE 10 17 30.03 1017 10 16.0934 0 0

Powered by AerisWeather